Terminal Aerodrome Forecast
Issued by NWS Austin/San Antonio, TX

Home | Current Version | Previous Version | Text Only | Print | Product List | Glossary On
Versions: 1 2 3 4 5 6 7 8 9 10 11 12 13 14 15 16 17 18 19 20 21 22 23 24 25 26 27
000
FTUS44 KEWX 240500
TAFAUS
TAF
KAUS 240521Z 2406/2512 16012G20KT P6SM BKN018
     FM241000 18010KT P6SM OVC006
     FM241300 18005KT 4SM BR OVC015
     FM241500 19010KT P6SM BKN025
     FM241700 19005KT P6SM SCT050
     FM250000 02010KT P6SM SCT250=

USA.gov is the U.S. government's official web portal to all federal, state and local government web resources and services.